Weather History for Millville, NJ

Change the Weather History Date:

Monday, July 22, 2013

  Actual Average Record
Temperature  
Mean Temperature 80 °F -  
Max Temperature 87 °F 85 °F 100 °F (1955)
Min Temperature 73 °F 67 °F 54 °F (1966)
Cooling Degree Days 14    
Growing Degree Days 30 (Base 50)    
Moisture  
Dew Point 72 °F    
Average Humidity 80    
Maximum Humidity 94    
Minimum Humidity 59    
Precipitation  
Precipitation 0.01 in - - ()
Sea Level Pressure  
Sea Level Pressure 29.87 in    
Wind  
Wind Speed 2 mph (SE)    
Max Wind Speed 7 mph    
Max Gust Speed -    
Visibility 8 miles    
Events      
Averages and records for this station are not official NWS values.
T = Trace of Precipitation, MM = Missing Value Source: NWS Daily Summary

Daily Weather History Graph

Daily Weather History Graph

Search for Another Location

Airport:

Trip Planner

Search our weather history database for the weather conditions in past years. The results will help you decide how hot, cold, wet, or windy it might be!

Date:

Astronomy

Jul. 22, 2013 Rise Set
Actual Time 5:51 AM EDT 8:21 PM EDT
Civil Twilight 5:20 AM EDT 8:52 PM EDT
Nautical Twilight 4:42 AM EDT 9:30 PM EDT
Astronomical Twilight 3:59 AM EDT 10:12 PM EDT
Moon 8:06 PM EDT (7/22) 5:44 AM EDT (7/22)
Length of Visible Light 15h 31m
Length of Day
14h 29m
Full, 100% of the Moon is Illuminated
Jul 22
Full
Jul 22
Full
Jul 29
Last Quarter
Aug 6
New
Aug 14
First Quarter

Hourly Weather History & Observations

Time (EDT) Temp. Heat Index Dew Point Humidity Pressure Visibility Wind Dir Wind Speed Gust Speed Precip Events Conditions
12:54 AM 75.0 °F - 72.0 °F 90% 29.92 in 9.0 mi Calm Calm - N/A   Clear
1:54 AM 73.9 °F - 72.0 °F 93% 29.92 in 7.0 mi East 3.5 mph - N/A   Partly Cloudy
2:54 AM 73.9 °F - 71.1 °F 91% 29.92 in 7.0 mi ENE 4.6 mph - N/A   Mostly Cloudy
3:54 AM 73.9 °F - 70.0 °F 87% 29.91 in 9.0 mi Calm Calm - N/A   Overcast
4:54 AM 73.0 °F - 70.0 °F 90% 29.91 in 8.0 mi East 3.5 mph - N/A   Overcast
5:54 AM 73.9 °F - 71.1 °F 91% 29.91 in 8.0 mi Calm Calm - 0.01 in   Overcast
6:54 AM 73.9 °F - 72.0 °F 93% 29.92 in 5.0 mi Calm Calm - N/A   Mostly Cloudy
7:54 AM 75.9 °F - 72.0 °F 87% 29.92 in 7.0 mi Calm Calm - N/A   Clear
8:54 AM 77.0 °F - 72.0 °F 84% 29.93 in 8.0 mi Calm Calm - N/A   Partly Cloudy
9:54 AM 80.1 °F 83.8 °F 72.0 °F 76% 29.92 in 10.0 mi Calm Calm - N/A   Clear
10:54 AM 81.0 °F 85.2 °F 72.0 °F 74% 29.93 in 10.0 mi Variable 3.5 mph - N/A   Clear
11:54 AM 82.0 °F 86.7 °F 72.0 °F 71% 29.92 in 10.0 mi Calm Calm - N/A   Clear
12:54 PM 82.0 °F 87.4 °F 73.0 °F 74% 29.90 in 8.0 mi Variable 4.6 mph - N/A   Scattered Clouds
1:03 PM 84.2 °F 90.9 °F 73.4 °F 70% 29.91 in 8.0 mi Calm Calm - N/A   Mostly Cloudy
1:37 PM 84.2 °F 90.9 °F 73.4 °F 70% 29.90 in 10.0 mi Calm Calm - N/A   Mostly Cloudy
1:54 PM 84.0 °F 89.6 °F 72.0 °F 67% 29.89 in 10.0 mi Variable 4.6 mph - N/A   Scattered Clouds
2:54 PM 86.0 °F 92.2 °F 72.0 °F 63% 29.87 in 10.0 mi SSE 6.9 mph - N/A   Partly Cloudy
3:54 PM 86.0 °F 91.5 °F 71.1 °F 61% 29.84 in 10.0 mi Variable 4.6 mph - N/A   Clear
4:54 PM 86.0 °F 90.7 °F 70.0 °F 59% 29.82 in 10.0 mi Variable 3.5 mph - N/A   Clear
5:54 PM 82.0 °F 86.7 °F 72.0 °F 71% 29.81 in 10.0 mi Variable 5.8 mph - N/A   Clear
6:54 PM 80.1 °F 84.2 °F 73.0 °F 79% 29.82 in 10.0 mi Calm Calm - 0.00 in   Partly Cloudy
7:54 PM 79.0 °F - 73.0 °F 82% 29.81 in 9.0 mi SSE 4.6 mph - N/A   Clear
8:54 PM 78.1 °F - 73.0 °F 84% 29.81 in 9.0 mi SSE 4.6 mph - N/A   Clear
9:54 PM 77.0 °F - 73.0 °F 88% 29.81 in 6.0 mi SSE 5.8 mph - N/A   Partly Cloudy
10:10 PM 77.0 °F - 73.4 °F 89% 29.81 in 5.0 mi SE 6.9 mph - N/A   Mostly Cloudy
10:54 PM 77.0 °F - 73.9 °F 90% 29.79 in 6.0 mi SSE 5.8 mph - N/A   Overcast
11:54 PM 77.0 °F - 75.0 °F 94% 29.78 in 6.0 mi SSE 3.5 mph - N/A   Mostly Cloudy